Location: Godiavel Galaoual
(15.2485°N, 12.6604°W)
Time: 00:10:27
(UTC+00:00)

Transit 4A - Pass Details

Date: 13 June 2021
Orbit: 872 x 972 km, 66.8° (Epoch: 29 July)

Event Time Altitude Azimuth Distance (km) Brightness Sun altitude
Rises 23:02:44 0° 308° (NW) 3,467 11.6 -43.3°
Reaches altitude 10° 23:06:24 10° 285° (WNW) 2,541 10.6 -43.8°
Enters shadow 23:06:43 11° 282° (WNW) 2,485 10.5 -43.8°
Maximum altitude 23:09:26 14° 253° (WSW) 2,250 - -44.2°
Drops below altitude 10° 23:12:29 10° 222° (SW) 2,568 - -44.6°
Sets 23:16:16 0° 199° (SSW) 3,530 - -45.1°
